Location: American Medical Response
(33.3472°N, 96.5511°W)
Time: 07:50:30
(UTC+00:00)

Cosmos 44 - Pass Details

Date: 08 December 2021
Orbit: 583 x 778 km, 65.1° (Epoch: 17 January)

Event Time Altitude Azimuth Distance (km) Brightness Sun altitude
Rises 12:26:18 0° 194° (SSW) 3,238 6.8 -10.7°
Reaches altitude 10° 12:28:46 10° 190° (S) 2,318 6.1 -10.2°
Maximum altitude 12:33:57 53° 114° (ESE) 941 4.5 -9.2°
Drops below altitude 10° 12:39:06 10° 38° (NE) 2,291 6.2 -8.2°
Sets 12:41:30 0° 34° (NE) 3,198 6.9 -7.7°
